Location: Unspecified
(0.0000°N, 1.0000°E)
Time: 10:29:29
(UTC+02:00)

Daily predictions for brighter satellites

Satellite Brightness Start Highest point End
(mag) Time Altitude Azimuth Time Altitude Azimuth Time Altitude Azimuth
ARIANE 5 R/B 3.7 20:05:02 10° WSW 20:09:35 53° SSE 20:41:02 10° E
ARIANE 5 R/B 3.7 20:05:02 10° WSW 20:09:35 53° SSE 20:40:59 10° E
ARIANE 5 R/B 3.7 20:05:02 10° WSW 20:09:36 53° SSE 20:41:01 10° E
ARIANE 5 R/B 3.7 20:05:02 10° WSW 20:09:36 53° SSE 20:41:03 10° E
ARIANE 5 R/B 3.7 20:05:02 10° WSW 20:09:36 53° SSE 20:41:02 10° E
CZ-2C R/B 3.2 20:19:07 10° S 20:24:02 58° WSW 20:29:04 10° NNW
ARIANE 5 R/B 2.8 20:21:10 10° WSW 20:24:25 73° S 20:37:30 10° E
Meteor 1-18 Rocket 4.3 20:18:48 10° N 20:24:32 87° E 20:30:10 10° S
Cosmos 1354 Rocket 4.1 20:20:41 10° NNW 20:26:01 90° ENE 20:31:21 10° SSE
ARIANE 5 R/B 2.5 20:25:23 10° W 20:28:12 81° S 20:39:41 11° E
Meteor 2-8 Rocket 4.4 20:22:11 10° N 20:28:12 64° E 20:34:13 10° SSE
GPS 2-12 Rocket1 3.6 20:23:46 10° NW 20:28:19 51° NNE 20:32:49 11° E
Cosmos 1536 2.9 20:31:01 10° S 20:35:00 81° W 20:38:58 10° N
FREGAT/IRIS 4.0 20:32:31 10° SE 20:35:01 22° E 20:37:31 10° NNE
Blok-2BL 3.9 20:34:43 10° NNW 20:39:24 84° WSW 20:43:01 10° SSE
Resurs 01 Rocket 2.9 20:36:13 10° SE 20:39:33 21° ENE 20:42:53 10° NNE
GPS 2-14 Rocket1 2.7 20:36:28 10° WSW 20:40:40 84° SSE 20:44:18 13° ENE
IDEFIX/ARIANE 42P 3.9 20:38:00 10° S 20:42:52 41° WSW 20:47:43 10° NNW
Cosmos 1812 3.4 20:39:39 10° NNW 20:43:27 57° W 20:47:16 10° S
BREEZE-M DEB (TANK) 4.4 20:42:28 10° NNW 20:46:14 48° ENE 20:59:54 10° SE
Meteor 2-16 Rocket 4.4 20:41:34 10° S 20:47:32 59° E 20:53:29 10° NNE
Cosmos 1544 Rocket 3.4 20:45:18 10° S 20:49:38 74° E 20:53:57 10° N
Cosmos 1697 Rocket 3.1 20:46:04 10° S 20:51:17 39° ESE 20:56:30 10° NE
Cosmos 1821 Rocket 3.9 20:46:48 10° S 20:53:02 86° E 20:59:09 10° N
Kiku-3 4.3 20:53:00 10° SW 20:55:22 74° SSE 20:58:51 16° ENE
Cosmos 1605 Rocket 4.3 20:49:51 10° SSE 20:55:55 45° E 21:01:55 10° NNE
Cosmos 1484 Rocket 3.8 20:52:16 10° S 20:55:58 46° WSW 20:59:36 10° NNW
Cosmos 1833 4.2 20:50:46 10° N 20:56:27 69° ENE 21:02:12 10° SSE
Cosmos 2219 4.0 20:55:49 10° NNE 21:00:35 29° ENE 21:02:20 24° ESE
Cosmos 468 Rocket 4.3 21:00:08 10° S 21:04:58 41° ESE 21:09:46 10° NNE
METEOR-M 4.2 21:02:06 10° SSE 21:07:17 52° ENE 21:12:28 10° N
GPS 2-04 Rocket1 3.6 21:05:06 10° WNW 21:08:43 42° SW 21:10:45 23° SSE
ARIANE 44LP R/B 4.2 20:34:44 10° W 21:09:30 64° SSW 21:12:31 28° ESE
ARIANE 5 R/B 1.6 21:10:21 10° W 21:12:21 54° NW 21:12:21 54° NW
Cosmos 1980 Rocket 2.7 21:08:40 10° S 21:13:44 35° ESE 21:14:50 32° E
Cosmos 1814 Rocket 4.3 21:08:49 10° S 21:13:51 42° ESE 21:18:52 10° NNE
Delta 202 3.8 21:08:36 10° WNW 21:14:03 87° SSW 21:17:19 32° ESE
ARIANE 5 R/B 4.2 20:48:19 10° W 21:14:30 76° S 21:17:19 32° ESE
Meteor 1-12 Rocket 4.1 21:10:10 10° S 21:15:45 63° E 21:21:22 10° NNE
Meteor 2-4 Rocket 3.9 21:11:56 10° N 21:17:40 52° E 21:21:39 20° SSE
Cosmos 1975 4.2 21:22:33 26° NNE 21:22:33 26° NNE 21:24:30 10° NNE
GPS 2-17 Rocket1 4.0 21:19:57 10° W 21:23:59 38° NNW 21:25:38 27° NNE
Sylda 4400 3.8 21:22:30 10° WNW 21:24:01 33° NW 21:24:01 33° NW
Cosmos 44 4.3 21:21:59 10° NW 21:26:12 39° WSW 21:29:40 13° S
Delta 2 Rocket 4.4 21:22:27 10° SW 21:29:18 61° SSE 21:32:08 40° E
FengYun 1-2 T 4.2 21:26:52 33° SE 21:29:23 63° ENE 21:34:56 10° N
HJ-1C 4.1 21:30:21 46° SW 21:30:45 50° WSW 21:33:55 10° NNW
Skynet4D Del rocket 4.2 21:26:18 10° SW 21:33:10 73° SSE 21:35:50 43° ENE
Helios 1A 3.3 21:31:05 26° S 21:33:17 64° WSW 21:37:23 10° NNW
ARIANE 5 DEB (SYLDA) 3.4 21:27:40 10° W 21:36:29 60° N 21:36:53 57° NNE
Spot 2 Rocket 3.9 21:33:15 10° S 21:38:18 61° WSW 21:43:20 10° NNW
Intelsat 5-2 Rocket 3.3 21:34:26 10° WSW 21:38:24 50° W 21:38:24 50° W
Meteor 1-23 Rocket 4.1 21:33:38 10° N 21:39:21 82° E 21:41:46 37° SSE
FENGYUN 3A 4.4 21:41:28 38° NNE 21:41:28 38° NNE 21:45:00 10° N
Meteor 2-15 4.2 21:39:05 10° N 21:45:05 71° E 21:45:30 68° ESE
CZ-3C R/B 4.4 20:44:10 10° W 21:45:56 33° NNW 21:53:28 15° NE
Cosmos 2123 Rocket 4.2 21:43:03 10° N 21:47:49 50° NE 21:47:49 50° NE
ATLAS 2AS CENTAUR R/B 4.2 21:43:59 10° NW 21:50:24 34° WSW 21:56:19 10° S
ARIANE 44L R/B 4.1 14:43:13 10° W 22:00:51 88° S 22:02:06 67° E
ALOS 4.1 22:06:27 25° NNW 22:06:27 25° NNW 22:08:23 10° NNW
Resurs 01 Rocket 4.3 22:13:06 10° SW 22:15:46 16° WSW 22:18:31 10° WNW
VEP-3 4.3 22:10:57 10° W 22:17:14 51° NNW 22:41:48 10° ENE
CZ-3B DEB 4.3 22:49:11 10° NNW 23:11:19 71° NW 23:11:19 71° NW
